Theta_e
327 327 328 327 328 328 328 327 327 327 327 328 328 328 329 330 331 331 330 328 328 327 325 325 324 324 323 323 323 322 321 320 319 319 318 318 317 317 314 313 312 311
326 327 326 327 327 328 328 329 328 327 327 328 328 329 329 329 330 330 329 327 326 325 324 324 324 323 322 321 321 321 319 318 317 317 316 315 312 312 312 312 310 310
326 326 326 326 326 327 328 329 329 328 327 327 329 329 329 329 329 328 327 325 323 322 322 323 322 321 320 320 320 319 317 316 315 313 314 311 309 309 309 309 309 308
324 325 325 326 326 327 328 328 328 328 328 327 328 328 328 328 328 325 323 316 321 319 318 318 319 319 318 318 316 313 312 311 310 310 309 306 306 306 306 307 306 303
323 324 325 325 326 327 327 327 328 328 328 328 328 327 325 323 323 320 318 317 318 316 315 314 312 312 313 312 312 311 310 308 307 307 305 303 304 305 306 304 300 299
323 324 324 325 326 326 326 326 326 325 325 324 324 325 324 321 318 316 314 313 312 313 312 310 309 307 309 310 311 311 308 305 304 303 300 299 298 299 299 298 297 295
320 322 323 324 324 325 324 324 325 323 323 324 322 320 319 317 315 313 312 311 310 308 306 305 306 305 306 307 308 306 303 302 299 300 300 297 297 296 296 296 294 292
317 319 320 321 321 321 320 321 321 320 320 319 318 315 314 314 313 312 310 310 309 307 305 304 305 306 304 305 303 301 300 301 297 298 298 295 294 293 293 293 292 291
314 316 317 317 318 318 317 318 318 317 316 316 314 311 309 311 310 309 309 308 307 305 305 303 304 303 301 302 301 301 300 298 297 297 297 294 292 291 291 291 290 289
311 313 314 313 314 314 314 315 313 312 310 312 311 308 307 306 308 308 307 306 305 303 303 301 300 300 299 300 300 299 299 299 296 295 295 293 291 290 290 290 289 288
309 310 311 310 311 310 310 309 307 306 305 308 306 305 306 304 303 303 304 303 303 302 301 300 300 299 299 298 298 298 298 297 294 294 292 291 290 290 289 289 288 287
307 308 308 309 308 307 306 305 304 304 304 303 304 305 302 301 302 299 300 300 299 299 299 298 298 297 297 296 295 295 295 294 293 291 291 290 289 289 289 289 288 287
306 306 307 307 306 305 304 302 302 299 299 300 298 300 299 298 297 297 296 297 298 297 297 295 295 294 294 294 294 294 293 291 290 290 289 288 288 288 288 288 288 287
305 304 303 303 302 301 299 298 297 295 296 295 294 295 295 295 296 296 295 296 297 297 297 295 294 294 293 293 292 292 291 290 289 288 288 287 287 287 287 287 287 287
303 301 300 298 296 297 296 295 294 293 292 292 293 293 295 293 294 295 295 294 293 293 293 293 293 293 292 291 291 290 289 289 288 287 287 286 286 286 286 286 286 287
298 298 298 296 296 295 293 292 292 292 292 292 292 292 292 292 293 293 294 294 293 292 292 292 292 292 289 290 290 289 289 288 288 287 286 286 285 285 285 286 286 286
297 295 294 293 295 295 294 292 292 292 291 291 291 291 291 291 292 292 292 292 292 291 291 291 291 290 289 291 291 291 289 288 287 287 286 286 285 284 284 284 285 284
296 294 293 293 293 293 293 293 292 292 291 291 290 290 289 289 290 291 292 291 291 290 290 290 290 289 290 291 291 291 289 288 287 286 286 285 285 285 284 284 284 283
296 295 294 294 293 293 293 291 289 289 290 289 289 289 290 289 290 290 290 290 290 290 290 290 289 289 290 291 291 290 290 288 287 286 286 285 285 285 284 284 283 283
297 296 294 294 293 292 292 291 289 289 289 290 289 288 288 289 289 289 289 289 289 289 289 288 288 288 290 290 290 290 290 289 287 286 286 285 285 285 284 284 283 282
295 295 294 293 292 290 289 289 290 289 288 288 287 287 287 287 288 288 288 287 288 288 288 287 287 288 290 290 290 290 290 289 287 287 286 285 285 285 284 284 283 283
294 294 294 294 291 289 288 288 288 288 287 288 287 288 287 287 287 287 286 286 287 287 287 287 287 289 289 289 290 290 290 287 287 286 285 285 284 284 284 284 283 283
294 293 292 292 290 289 288 288 288 288 287 287 287 287 286 287 286 287 287 287 287 287 287 287 287 288 289 289 289 290 289 286 285 285 284 284 283 283 283 283 283 283
295 294 290 289 288 288 288 288 288 288 287 287 287 287 286 286 287 286 287 287 286 287 287 287 287 287 288 289 289 289 287 285 285 285 283 283 282 282 282 282 282 283
295 293 291 289 289 288 288 288 287 287 287 286 287 287 286 286 286 286 286 286 286 286 286 286 286 286 288 289 289 289 287 285 285 284 283 282 281 281 281 281 281 282
295 290 290 289 288 288 288 288 287 286 286 286 286 286 286 286 286 286 285 286 286 286 286 286 286 286 286 288 288 288 287 285 285 284 282 282 281 281 280 280 280 280
Wind_Speed
10 9 10 11 13 12 11 11 10 11 12 11 12 11 9 8 10 12 10 9 9 9 7 7 7 7 7 8 8 7 7 8 8 7 7 7 5 8 6 4 5 5
11 10 8 9 10 9 10 10 10 11 11 11 10 9 8 9 10 10 10 9 9 9 8 8 8 9 8 8 8 8 7 7 8 5 7 6 4 5 7 8 8 7
10 10 11 11 11 11 10 9 9 9 10 9 8 8 7 7 8 8 8 9 9 9 9 9 8 8 7 7 7 6 6 8 7 7 7 8 5 6 6 7 7 7
10 10 11 11 11 11 9 8 9 8 8 7 7 6 6 5 7 8 8 8 9 9 8 8 8 8 8 7 6 5 6 7 7 8 7 5 5 6 7 6 6 7
9 10 11 10 10 9 8 7 8 6 7 5 5 7 6 6 7 7 7 8 8 8 8 8 7 6 7 8 8 7 7 6 6 7 7 6 5 6 6 6 7 8
4 5 7 8 7 8 9 8 7 7 8 6 7 6 7 8 7 8 8 8 7 8 9 9 9 7 7 8 8 8 7 6 6 6 7 7 6 4 4 6 8 7
8 7 8 7 9 9 9 9 8 8 8 8 6 7 7 7 8 8 8 8 8 7 8 8 10 10 9 8 7 6 6 6 5 6 7 6 7 7 5 6 7 7
10 7 7 8 9 9 8 7 7 6 7 6 8 7 7 8 8 7 8 8 9 9 9 10 10 11 9 8 7 7 6 5 6 7 7 7 7 7 7 6 7 8
9 8 7 7 9 8 8 8 7 6 6 8 7 6 6 7 8 8 9 9 9 10 11 10 10 8 8 9 8 8 8 8 7 8 9 9 8 9 8 7 7 7
7 8 7 6 7 6 7 6 6 6 5 7 7 6 8 6 7 8 8 9 10 8 8 9 9 8 9 9 10 10 9 10 9 8 7 8 9 10 9 8 8 8
7 7 7 6 5 4 5 4 4 5 5 6 6 7 7 7 6 5 7 8 8 9 10 10 11 10 10 10 8 8 9 9 9 8 8 9 9 8 8 8 8 8
8 7 7 6 5 3 3 3 3 4 4 4 5 7 6 6 7 7 8 9 8 9 8 8 9 9 8 9 9 8 8 8 8 8 8 8 7 7 7 6 7 8
6 6 5 5 4 3 3 3 3 2 3 3 3 4 6 6 5 6 5 7 7 7 7 7 7 8 7 7 9 9 9 9 8 8 7 7 6 6 5 5 6 7
4 4 3 2 1 1 1 0 0 1 1 1 2 3 4 5 6 7 6 5 6 8 7 6 6 6 7 8 8 9 9 9 9 9 8 7 7 6 5 5 6 6
3 0 0 0 1 2 1 2 2 2 2 2 3 3 3 3 3 4 5 5 4 4 5 6 7 7 7 9 10 9 9 10 9 9 9 9 8 7 5 5 5 5
1 1 1 1 2 3 2 2 2 3 3 3 3 3 3 3 4 4 5 6 6 5 5 6 7 6 7 13 13 12 12 10 9 10 10 9 9 8 6 5 5 5
3 3 3 3 3 3 2 3 4 4 3 3 3 3 3 3 4 6 5 5 6 7 7 7 6 6 12 15 15 16 13 12 12 11 9 9 9 10 9 8 6 6
3 3 3 3 2 3 3 3 3 3 3 4 4 4 4 4 5 5 6 6 6 6 7 7 6 8 14 14 16 17 14 12 10 10 10 9 9 9 8 8 8 7
4 3 3 3 3 3 2 2 2 2 3 3 3 3 4 5 6 6 6 6 6 7 7 6 4 9 14 15 15 16 16 12 9 10 10 9 9 9 9 8 8 7
3 3 3 2 2 1 2 2 1 2 2 2 2 2 4 3 3 5 5 5 6 6 6 5 5 10 13 15 16 16 16 12 8 10 9 9 9 9 8 8 8 8
3 3 3 3 3 1 1 1 1 1 1 2 2 3 3 4 4 5 6 5 6 5 6 6 5 11 11 12 12 13 16 10 8 7 7 7 7 7 7 7 7 7
4 4 3 4 4 3 3 3 2 2 3 2 2 2 1 2 2 3 4 4 4 5 4 6 5 13 14 14 11 12 13 7 7 8 8 7 7 7 6 6 6 7
5 5 4 4 3 3 3 3 4 3 2 2 3 3 3 3 4 4 4 5 5 5 6 6 6 13 15 15 13 14 10 6 7 6 6 7 6 6 5 5 5 6
5 6 4 4 3 4 4 3 3 2 3 2 4 4 5 6 4 4 4 5 6 7 9 7 7 13 17 14 15 14 12 8 7 7 6 5 5 5 4 4 4 7
5 4 4 4 5 5 5 4 4 3 1 2 2 2 2 1 1 2 3 3 4 5 7 7 5 9 15 11 14 13 11 5 6 6 7 6 5 5 4 4 4 5
3 3 2 3 3 3 3 4 2 2 3 3 1 1 1 1 1 2 4 4 3 4 4 5 5 6 10 12 12 13 10 7 5 8 9 8 6 6 6 4 5 6
Wind_Direction
215 216 221 226 229 228 223 220 215 221 223 222 221 218 212 203 206 200 186 186 187 186 183 189 179 184 187 188 187 181 178 171 172 175 169 183 184 170 153 128 151 195
218 222 226 231 231 226 227 218 215 219 222 224 220 217 213 205 206 200 187 186 189 193 180 183 186 186 179 179 186 185 169 165 171 167 163 171 143 142 150 162 173 196
219 223 227 230 233 231 226 228 220 213 221 225 219 213 212 201 195 196 189 188 186 185 178 178 179 174 166 184 188 183 168 168 167 173 169 174 149 150 154 161 181 180
220 223 227 229 232 236 231 228 227 222 218 220 203 202 210 193 193 186 188 183 184 180 176 173 176 170 174 176 162 159 157 163 171 171 157 142 154 137 150 161 169 176
225 225 228 233 234 236 240 231 220 211 210 209 194 199 193 173 188 182 186 187 182 175 168 165 154 158 155 155 166 171 167 165 161 161 144 138 149 156 156 154 162 179
238 235 233 234 237 234 232 230 222 216 214 211 202 192 192 183 186 187 183 182 179 174 169 158 153 151 160 165 175 173 162 153 163 145 135 141 137 133 138 157 167 165
221 216 219 217 226 225 228 226 217 197 204 203 187 200 187 190 192 187 181 177 170 165 159 158 158 164 171 169 169 152 143 145 140 149 148 146 144 147 151 160 162 153
225 228 223 222 222 222 220 218 220 208 204 200 205 198 189 192 189 184 178 175 174 171 172 172 175 177 164 156 155 153 149 144 157 164 158 151 152 155 163 162 155 144
228 229 228 223 223 219 218 216 214 208 195 201 198 190 191 190 187 182 180 180 182 180 176 179 174 170 163 157 159 162 161 165 173 173 168 160 163 165 164 155 147 142
227 230 230 225 223 221 219 214 210 207 196 200 192 182 187 193 188 183 182 182 181 182 182 175 162 170 169 168 166 166 169 170 170 172 169 164 166 163 160 159 153 143
239 235 235 238 236 230 227 217 210 199 193 194 180 186 190 182 187 180 179 177 184 186 180 177 175 175 174 166 160 166 169 165 163 166 163 163 162 159 157 156 155 152
242 240 238 239 241 239 232 222 211 203 199 199 186 188 184 182 177 177 179 185 183 182 190 185 170 172 173 161 153 153 153 152 154 154 151 148 144 146 153 151 150 144
240 242 238 239 237 236 224 213 216 216 200 204 200 188 176 176 177 174 185 180 181 176 177 177 171 159 158 158 151 151 148 146 144 137 133 130 132 136 133 134 137 145
237 245 265 309 347 25 51 119 83 125 188 133 150 169 180 180 177 181 182 181 180 180 175 162 170 163 153 152 150 146 144 146 146 139 130 122 122 129 135 138 139 142
231 209 56 69 93 118 136 150 148 140 132 146 164 173 172 177 166 162 155 162 152 160 155 150 163 174 162 156 149 144 145 144 141 137 140 142 141 139 139 139 140 140
156 149 168 160 169 169 179 158 156 154 153 159 169 163 156 152 152 153 164 166 159 153 156 160 167 175 183 169 160 155 154 150 147 149 151 152 151 147 145 147 143 134
171 165 153 184 182 161 150 162 166 163 164 155 147 142 146 152 147 156 166 163 164 164 167 174 178 175 177 171 164 158 154 154 154 154 155 156 159 159 157 155 145 126
184 164 176 190 170 179 170 175 152 152 158 154 148 155 159 151 166 173 167 164 161 165 174 182 188 173 174 168 164 163 162 158 156 156 159 161 161 160 157 154 149 140
186 179 190 193 198 186 166 138 159 161 161 168 180 167 149 171 181 164 169 165 165 170 177 174 179 168 171 168 169 167 163 158 159 156 157 163 165 162 158 158 154 152
190 187 193 188 154 140 139 168 186 204 184 148 123 127 165 168 159 170 161 168 171 169 167 169 169 172 168 170 171 169 165 161 160 159 159 162 163 162 162 162 161 160
173 181 190 167 152 142 143 169 188 199 169 171 165 176 180 181 175 176 177 173 172 167 168 177 176 172 165 167 168 164 165 155 156 156 155 155 155 158 163 160 163 157
172 180 174 165 157 164 173 186 187 188 184 179 170 178 150 139 146 163 172 180 178 168 167 179 166 176 179 176 164 161 158 158 160 159 158 152 154 156 156 157 157 154
176 172 170 164 162 168 183 190 190 189 176 163 173 182 172 183 186 184 180 178 180 183 181 182 165 181 184 180 170 166 161 166 163 161 155 152 153 147 146 145 151 161
174 175 172 171 163 183 190 196 192 190 184 180 191 185 191 196 189 185 184 188 189 194 192 187 186 182 183 176 176 173 175 166 168 162 151 146 132 129 129 137 145 152
175 178 176 177 186 193 186 188 190 192 148 159 205 200 205 155 164 173 195 205 207 207 201 195 182 182 185 177 178 174 176 167 166 154 153 156 144 144 140 140 140 154
159 165 170 177 196 189 184 193 148 133 157 180 169 151 162 174 145 185 197 209 194 200 199 195 169 172 185 177 181 176 178 174 170 164 173 164 159 159 155 162 158 167